| time (UTC) | temp F | wind direction | speed MPH | gust MPH | rain 1hr in | rain 24hr in | rain mn in | humidity % | barometer mb |
| 20260906100034 | 56 | 246 | 0.0 | 1.0 | 0.00 | 0.01 | 0.00 | 93 | 1014.1 |
| 20260906095612 | 56 | 246 | 0.0 | 1.0 | 0.00 | 0.01 | 0.00 | 93 | 1014.0 |
| 20260906095057 | 56 | 246 | 0.0 | 0.0 | 0.00 | 0.01 | 0.00 | 93 | 1013.9 |
| 20260906094543 | 56 | 246 | 0.0 | 0.0 | 0.00 | 0.01 | 0.00 | 93 | 1013.8 |
| 20260906094042 | 56 | 246 | 0.0 | 0.0 | 0.00 | 0.01 | 0.00 | 93 | 1013.8 |
| 20260906093546 | 56 | 246 | 0.0 | 0.0 | 0.00 | 0.01 | 0.00 | 93 | 1013.8 |
| 20260906093027 | 56 | 246 | 0.0 | 0.0 | 0.00 | 0.01 | 0.00 | 93 | 1013.8 |
| 20260906092530 | 56 | 246 | 0.0 | 1.0 | 0.00 | 0.01 | 0.00 | 93 | 1013.8 |
| 20260906092032 | 56 | 246 | 0.0 | 1.0 | 0.00 | 0.01 | 0.00 | 93 | 1013.7 |
| 20260906091535 | 57 | 246 | 0.0 | 1.0 | 0.00 | 0.01 | 0.00 | 93 | 1013.6 |
| 20260906091034 | 57 | 246 | 0.0 | 1.0 | 0.00 | 0.01 | 0.00 | 92 | 1013.5 |
| 20260906090613 | 57 | 246 | 0.0 | 0.0 | 0.00 | 0.01 | 0.00 | 93 | 1013.4 |
| 20260906090034 | 57 | 246 | 0.0 | 0.0 | 0.00 | 0.01 | 0.00 | 93 | 1013.4 |
| 20260906085540 | 57 | 246 | 0.0 | 2.0 | 0.00 | 0.01 | 0.00 | 92 | 1013.4 |
| 20260906085103 | 57 | 247 | 0.0 | 2.0 | 0.00 | 0.01 | 0.00 | 92 | 1013.5 |
| 20260906084525 | 57 | 235 | 0.0 | 0.0 | 0.00 | 0.01 | 0.00 | 93 | 1013.5 |
| 20260906084031 | 57 | 235 | 0.0 | 0.0 | 0.00 | 0.01 | 0.00 | 92 | 1013.5 |
| 20260906083531 | 57 | 235 | 0.0 | 0.0 | 0.00 | 0.01 | 0.00 | 93 | 1013.6 |
| 20260906083033 | 57 | 235 | 0.0 | 0.0 | 0.00 | 0.01 | 0.00 | 93 | 1013.6 |
| 20260906082535 | 57 | 235 | 0.0 | 0.0 | 0.00 | 0.01 | 0.00 | 93 | 1013.5 |
| 20260906082024 | 57 | 235 | 0.0 | 0.0 | 0.00 | 0.01 | 0.00 | 93 | 1013.5 |
| 20260906081527 | 57 | 235 | 0.0 | 0.0 | 0.00 | 0.01 | 0.00 | 93 | 1013.5 |
| 20260906081033 | 57 | 235 | 0.0 | 0.0 | 0.00 | 0.01 | 0.00 | 93 | 1013.3 |
| 20260906080555 | 57 | 235 | 0.0 | 0.0 | 0.00 | 0.01 | 0.00 | 93 | 1013.4 |
| 20260906080032 | 57 | 235 | 0.0 | 1.0 | 0.00 | 0.01 | 0.00 | 93 | 1013.4 |
| 20260906075535 | 57 | 235 | 0.0 | 1.0 | 0.00 | 0.01 | 0.00 | 93 | 1013.4 |
| 20260906075038 | 57 | 235 | 0.0 | 1.0 | 0.00 | 0.01 | 0.00 | 92 | 1013.5 |
| 20260906074541 | 57 | 235 | 0.0 | 1.0 | 0.00 | 0.01 | 0.00 | 92 | 1013.5 |
| 20260906074024 | 57 | 235 | 0.0 | 1.0 | 0.00 | 0.01 | 0.00 | 92 | 1013.7 |
| 20260906073531 | 57 | 235 | 0.0 | 2.0 | 0.00 | 0.01 | 0.00 | 92 | 1013.7 |
| 20260906073033 | 58 | 241 | 0.0 | 1.0 | 0.00 | 0.01 | 0.00 | 93 | 1013.7 |
| 20260906072532 | 58 | 242 | 0.0 | 1.0 | 0.00 | 0.01 | 0.00 | 93 | 1013.7 |
| 20260906072035 | 58 | 242 | 0.0 | 0.0 | 0.00 | 0.01 | 0.00 | 93 | 1013.6 |
| 20260906071613 | 58 | 242 | 0.0 | 1.0 | 0.00 | 0.01 | 0.00 | 93 | 1013.5 |
| 20260906071056 | 58 | 242 | 0.0 | 1.0 | 0.00 | 0.01 | 0.00 | 93 | 1013.4 |
| 20260906070540 | 58 | 242 | 0.0 | 0.0 | 0.00 | 0.01 | 0.00 | 93 | 1013.4 |
| 20260906070045 | 58 | 242 | 0.0 | 0.0 | 0.00 | 0.01 | 0.00 | 94 | 1013.4 |
| 20260906065544 | 58 | 242 | 0.0 | 0.0 | 0.00 | 0.01 | 0.00 | 94 | 1013.3 |
| 20260906065027 | 58 | 242 | 0.0 | 0.0 | 0.00 | 0.01 | 0.00 | 94 | 1013.3 |
| 20260906064530 | 58 | 242 | 0.0 | 0.0 | 0.00 | 0.01 | 0.00 | 93 | 1013.4 |
| 20260906064033 | 58 | 242 | 0.0 | 0.0 | 0.00 | 0.01 | 0.00 | 93 | 1013.3 |
| 20260906063537 | 58 | 242 | 0.0 | 1.0 | 0.00 | 0.01 | 0.00 | 93 | 1013.3 |
| 20260906063039 | 58 | 242 | 0.0 | 1.0 | 0.00 | 0.01 | 0.00 | 94 | 1013.4 |
| 20260906062525 | 58 | 242 | 0.0 | 0.0 | 0.00 | 0.01 | 0.00 | 94 | 1013.4 |
| 20260906062119 | 58 | 242 | 0.0 | 1.0 | 0.00 | 0.01 | 0.00 | 94 | 1013.5 |
| 20260906061526 | 59 | 242 | 0.0 | 1.0 | 0.00 | 0.01 | 0.00 | 94 | 1013.6 |
| 20260906061047 | 59 | 242 | 0.0 | 1.0 | 0.00 | 0.01 | 0.00 | 93 | 1013.5 |
| 20260906060557 | 59 | 242 | 0.0 | 1.0 | 0.00 | 0.01 | 0.00 | 94 | 1013.5 |
| 20260906060026 | 59 | 242 | 0.0 | 1.0 | 0.00 | 0.01 | 0.00 | 94 | 1013.7 |
| 20260906055543 | 59 | 242 | 0.0 | 1.0 | 0.00 | 0.01 | 0.00 | 94 | 1013.7 |
| 20260906055045 | 59 | 242 | 0.0 | 1.0 | 0.00 | 0.01 | 0.00 | 94 | 1013.7 |
| 20260906054547 | 59 | 242 | 0.0 | 0.0 | 0.00 | 0.01 | 0.00 | 95 | 1013.7 |
| 20260906054049 | 59 | 242 | 0.0 | 0.0 | 0.00 | 0.01 | 0.00 | 94 | 1013.8 |
| 20260906053534 | 59 | 242 | 0.0 | 0.0 | 0.00 | 0.01 | 0.00 | 94 | 1013.7 |
| 20260906053038 | 59 | 242 | 0.0 | 1.0 | 0.00 | 0.01 | 0.00 | 95 | 1013.7 |
| 20260906052544 | 59 | 242 | 0.0 | 1.0 | 0.00 | 0.01 | 0.00 | 95 | 1013.8 |
| 20260906052033 | 59 | 242 | 0.0 | 0.0 | 0.00 | 0.01 | 0.00 | 95 | 1013.7 |
| 20260906051540 | 59 | 242 | 0.0 | 0.0 | 0.00 | 0.01 | 0.00 | 95 | 1013.8 |
| 20260906051059 | 59 | 242 | 0.0 | 0.0 | 0.00 | 0.01 | 0.00 | 95 | 1013.7 |
| 20260906050542 | 58 | 242 | 0.0 | 1.0 | 0.00 | 0.01 | 0.00 | 96 | 1013.7 |
| 20260906050023 | 58 | 242 | 0.0 | 1.0 | 0.00 | 0.01 | 0.00 | 96 | 1013.6 |
| 20260906045527 | 58 | 236 | 0.0 | 1.0 | 0.00 | 0.01 | 0.00 | 96 | 1013.6 |
| 20260906045103 | 58 | 236 | 1.0 | 1.0 | 0.00 | 0.01 | 0.00 | 96 | 1013.6 |
| 20260906044551 | 58 | 238 | 0.0 | 1.0 | 0.00 | 0.01 | 0.00 | 96 | 1013.7 |
| 20260906044034 | 58 | 238 | 1.0 | 1.0 | 0.00 | 0.01 | 0.00 | 96 | 1013.6 |
| 20260906043534 | 58 | 238 | 0.0 | 1.0 | 0.00 | 0.01 | 0.00 | 95 | 1013.5 |
| 20260906043039 | 58 | 238 | 0.0 | 0.0 | 0.00 | 0.01 | 0.00 | 95 | 1013.5 |
| 20260906042602 | 58 | 238 | 0.0 | 0.0 | 0.00 | 0.01 | 0.00 | 95 | 1013.4 |
| 20260906042024 | 58 | 238 | 0.0 | 0.0 | 0.00 | 0.01 | 0.00 | 95 | 1013.4 |
| 20260906041527 | 58 | 238 | 0.0 | 0.0 | 0.00 | 0.01 | 0.00 | 95 | 1013.5 |
| 20260906041033 | 58 | 238 | 0.0 | 0.0 | 0.00 | 0.01 | 0.00 | 95 | 1013.5 |
| 20260906040538 | 58 | 238 | 0.0 | 0.0 | 0.00 | 0.01 | 0.00 | 95 | 1013.3 |
| 20260906040032 | 58 | 238 | 0.0 | 0.0 | 0.00 | 0.01 | 0.01 | 95 | 1013.3 |
| 20260906035553 | 59 | 238 | 0.0 | 0.0 | 0.00 | 0.01 | 0.01 | 95 | 1013.4 |
| 20260906035056 | 59 | 238 | 0.0 | 0.0 | 0.00 | 0.01 | 0.01 | 95 | 1013.4 |
| 20260906034527 | 59 | 238 | 0.0 | 1.0 | 0.00 | 0.01 | 0.01 | 95 | 1013.3 |
| 20260906034045 | 59 | 238 | 0.0 | 1.0 | 0.00 | 0.01 | 0.01 | 95 | 1013.2 |
| 20260906033550 | 59 | 238 | 0.0 | 0.0 | 0.00 | 0.01 | 0.01 | 94 | 1013.2 |
| 20260906033031 | 59 | 238 | 0.0 | 0.0 | 0.00 | 0.01 | 0.01 | 94 | 1013.2 |
| 20260906032531 | 59 | 238 | 0.0 | 0.0 | 0.00 | 0.01 | 0.01 | 94 | 1013.2 |
| 20260906032034 | 60 | 238 | 0.0 | 0.0 | 0.00 | 0.01 | 0.01 | 94 | 1013.2 |
| 20260906031540 | 60 | 238 | 0.0 | 0.0 | 0.00 | 0.01 | 0.01 | 94 | 1013.1 |
| 20260906031023 | 60 | 238 | 0.0 | 0.0 | 0.00 | 0.01 | 0.01 | 94 | 1013.0 |
| 20260906030531 | 60 | 238 | 0.0 | 0.0 | 0.00 | 0.01 | 0.01 | 94 | 1013.0 |
| 20260906030033 | 60 | 238 | 0.0 | 0.0 | 0.00 | 0.01 | 0.01 | 94 | 1013.0 |
| 20260906025539 | 60 | 238 | 0.0 | 0.0 | 0.00 | 0.01 | 0.01 | 94 | 1013.1 |
| 20260906025038 | 60 | 238 | 0.0 | 0.0 | 0.00 | 0.01 | 0.01 | 94 | 1013.1 |
| 20260906024541 | 60 | 238 | 0.0 | 0.0 | 0.00 | 0.01 | 0.01 | 94 | 1013.1 |
| 20260906024044 | 60 | 238 | 0.0 | 0.0 | 0.00 | 0.01 | 0.01 | 94 | 1013.1 |
| 20260906023548 | 60 | 238 | 0.0 | 0.0 | 0.00 | 0.01 | 0.01 | 94 | 1013.1 |
| 20260906023047 | 60 | 238 | 0.0 | 0.0 | 0.00 | 0.01 | 0.01 | 94 | 1013.1 |
| 20260906022529 | 60 | 238 | 0.0 | 0.0 | 0.00 | 0.01 | 0.01 | 94 | 1013.1 |
| 20260906022051 | 60 | 238 | 0.0 | 0.0 | 0.00 | 0.01 | 0.01 | 94 | 1013.1 |
| 20260906021533 | 60 | 238 | 0.0 | 0.0 | 0.00 | 0.01 | 0.01 | 94 | 1013.0 |
| 20260906021039 | 60 | 238 | 0.0 | 0.0 | 0.00 | 0.01 | 0.01 | 94 | 1013.0 |
| 20260906020559 | 61 | 238 | 0.0 | 0.0 | 0.00 | 0.01 | 0.01 | 94 | 1013.0 |
| 20260906020028 | 61 | 238 | 0.0 | 0.0 | 0.00 | 0.01 | 0.01 | 94 | 1012.9 |
| 20260906015531 | 61 | 238 | 0.0 | 0.0 | 0.00 | 0.01 | 0.01 | 94 | 1012.9 |
| 20260906015049 | 61 | 238 | 0.0 | 0.0 | 0.00 | 0.01 | 0.01 | 95 | 1012.9 |
| 20260906014555 | 61 | 238 | 0.0 | 0.0 | 0.00 | 0.01 | 0.01 | 94 | 1012.9 |
| 20260906014026 | 60 | 238 | 0.0 | 0.0 | 0.00 | 0.01 | 0.01 | 94 | 1012.8 |
| 20260906013530 | 61 | 238 | 0.0 | 0.0 | 0.00 | 0.01 | 0.01 | 94 | 1012.8 |
| 20260906013048 | 61 | 238 | 0.0 | 1.0 | 0.00 | 0.01 | 0.01 | 94 | 1012.9 |
| 20260906012552 | 61 | 238 | 0.0 | 1.0 | 0.00 | 0.01 | 0.01 | 94 | 1012.8 |
| 20260906012039 | 61 | 238 | 0.0 | 0.0 | 0.00 | 0.01 | 0.01 | 94 | 1012.8 |
| 20260906011525 | 61 | 238 | 0.0 | 0.0 | 0.00 | 0.01 | 0.01 | 94 | 1012.8 |
| 20260906011047 | 61 | 238 | 0.0 | 0.0 | 0.00 | 0.01 | 0.01 | 94 | 1012.8 |
| 20260906010609 | 61 | 237 | 0.0 | 0.0 | 0.00 | 0.01 | 0.01 | 94 | 1012.8 |
| 20260906010055 | 61 | 237 | 0.0 | 0.0 | 0.00 | 0.01 | 0.01 | 94 | 1012.8 |
| 20260906005528 | 61 | 237 | 0.0 | 0.0 | 0.00 | 0.01 | 0.01 | 93 | 1012.8 |
| 20260906005046 | 61 | 237 | 0.0 | 0.0 | 0.00 | 0.01 | 0.01 | 93 | 1012.7 |
| 20260906004531 | 61 | 237 | 0.0 | 0.0 | 0.00 | 0.01 | 0.01 | 93 | 1012.7 |
| 20260906004033 | 61 | 237 | 0.0 | 0.0 | 0.00 | 0.01 | 0.01 | 93 | 1012.7 |
| 20260906003534 | 61 | 237 | 0.0 | 0.0 | 0.00 | 0.01 | 0.01 | 93 | 1012.7 |
| 20260906003038 | 61 | 237 | 0.0 | 0.0 | 0.00 | 0.01 | 0.01 | 93 | 1012.6 |
| 20260906002551 | 61 | 237 | 0.0 | 0.0 | 0.00 | 0.01 | 0.01 | 93 | 1012.6 |
| 20260906002108 | 61 | 237 | 0.0 | 0.0 | 0.00 | 0.01 | 0.01 | 93 | 1012.6 |
| 20260906001549 | 61 | 237 | 0.0 | 0.0 | 0.00 | 0.01 | 0.01 | 92 | 1012.6 |
| 20260906001053 | 61 | 237 | 0.0 | 0.0 | 0.00 | 0.01 | 0.01 | 92 | 1012.7 |
| 20260906000535 | 61 | 237 | 0.0 | 0.0 | 0.00 | 0.01 | 0.01 | 92 | 1012.6 |
| 20260906000039 | 61 | 237 | 0.0 | 0.0 | 0.00 | 0.01 | 0.01 | 92 | 1012.5 |
| 20260905235545 | 62 | 237 | 0.0 | 0.0 | 0.00 | 0.01 | 0.01 | 92 | 1012.4 |
| 20260905235028 | 62 | 237 | 0.0 | 0.0 | 0.00 | 0.01 | 0.01 | 92 | 1012.3 |
| 20260905234534 | 62 | 237 | 0.0 | 1.0 | 0.00 | 0.01 | 0.01 | 92 | 1012.3 |
| 20260905234037 | 62 | 237 | 0.0 | 1.0 | 0.00 | 0.01 | 0.01 | 91 | 1012.2 |
| 20260905233541 | 62 | 237 | 0.0 | 0.0 | 0.00 | 0.01 | 0.01 | 91 | 1012.2 |
| 20260905233026 | 62 | 237 | 0.0 | 1.0 | 0.00 | 0.01 | 0.01 | 90 | 1012.1 |
| 20260905232525 | 63 | 237 | 0.0 | 0.0 | 0.00 | 0.01 | 0.01 | 90 | 1012.0 |
| 20260905232028 | 63 | 237 | 0.0 | 1.0 | 0.00 | 0.01 | 0.01 | 89 | 1012.0 |
| 20260905231551 | 63 | 237 | 0.0 | 1.0 | 0.00 | 0.01 | 0.01 | 89 | 1012.0 |
| 20260905231048 | 63 | 237 | 0.0 | 1.0 | 0.00 | 0.01 | 0.01 | 89 | 1012.0 |
| 20260905230553 | 64 | 237 | 0.0 | 1.0 | 0.00 | 0.01 | 0.01 | 89 | 1012.0 |
| 20260905230025 | 64 | 237 | 0.0 | 0.0 | 0.00 | 0.01 | 0.01 | 88 | 1012.0 |
| 20260905225559 | 64 | 237 | 0.0 | 1.0 | 0.00 | 0.01 | 0.01 | 87 | 1012.0 |
| 20260905225044 | 65 | 237 | 0.0 | 1.0 | 0.00 | 0.01 | 0.01 | 87 | 1012.0 |
| 20260905224550 | 65 | 237 | 0.0 | 1.0 | 0.00 | 0.01 | 0.01 | 87 | 1012.0 |
| 20260905224053 | 66 | 237 | 0.0 | 1.0 | 0.00 | 0.01 | 0.01 | 86 | 1012.0 |
| 20260905223539 | 66 | 237 | 0.0 | 1.0 | 0.00 | 0.01 | 0.01 | 85 | 1012.0 |
| 20260905223041 | 66 | 237 | 0.0 | 2.0 | 0.00 | 0.01 | 0.01 | 85 | 1012.0 |
| 20260905222547 | 67 | 237 | 0.0 | 2.0 | 0.00 | 0.01 | 0.01 | 83 | 1011.9 |
| 20260905222025 | 67 | 239 | 0.0 | 1.0 | 0.00 | 0.01 | 0.01 | 82 | 1011.8 |
| 20260905221528 | 67 | 239 | 0.0 | 1.0 | 0.00 | 0.01 | 0.01 | 82 | 1011.9 |
| 20260905221049 | 68 | 240 | 0.0 | 3.0 | 0.00 | 0.01 | 0.01 | 79 | 1011.8 |
| 20260905220533 | 68 | 240 | 0.0 | 3.0 | 0.00 | 0.01 | 0.01 | 77 | 1011.8 |
| 20260905220034 | 68 | 246 | 1.0 | 4.0 | 0.00 | 0.01 | 0.01 | 75 | 1011.7 |
| 20260905215542 | 68 | 232 | 0.0 | 4.0 | 0.00 | 0.01 | 0.01 | 75 | 1011.7 |
| 20260905215040 | 68 | 237 | 1.0 | 4.0 | 0.00 | 0.01 | 0.01 | 76 | 1011.6 |
| 20260905214543 | 68 | 229 | 0.0 | 4.0 | 0.00 | 0.01 | 0.01 | 75 | 1011.5 |
| 20260905214028 | 68 | 226 | 1.0 | 4.0 | 0.00 | 0.01 | 0.01 | 75 | 1011.5 |
| 20260905213538 | 69 | 246 | 1.0 | 4.0 | 0.00 | 0.01 | 0.01 | 75 | 1011.4 |
| 20260905213101 | 69 | 224 | 1.0 | 2.0 | 0.00 | 0.01 | 0.01 | 75 | 1011.3 |
| 20260905212558 | 69 | 229 | 0.0 | 3.0 | 0.00 | 0.01 | 0.01 | 75 | 1011.3 |
| 20260905212026 | 69 | 229 | 1.0 | 4.0 | 0.00 | 0.01 | 0.01 | 73 | 1011.4 |
| 20260905211528 | 69 | 244 | 1.0 | 4.0 | 0.00 | 0.01 | 0.01 | 74 | 1011.4 |
| 20260905211046 | 69 | 313 | 2.0 | 4.0 | 0.00 | 0.01 | 0.01 | 74 | 1011.3 |
| 20260905210553 | 69 | 320 | 1.0 | 4.0 | 0.00 | 0.01 | 0.01 | 78 | 1011.1 |
| 20260905210055 | 69 | 232 | 1.0 | 4.0 | 0.00 | 0.01 | 0.01 | 81 | 1011.0 |
| 20260905205536 | 68 | 229 | 1.0 | 4.0 | 0.00 | 0.01 | 0.01 | 81 | 1010.8 |
| 20260905205039 | 68 | 76 | 0.0 | 0.0 | 0.00 | 0.01 | 0.01 | 85 | 1010.9 |
| 20260905204542 | 68 | 252 | 0.0 | 0.0 | 0.00 | 0.01 | 0.01 | 85 | 1011.0 |
| 20260905204117 | 68 | 279 | 0.0 | 0.0 | 0.00 | 0.01 | 0.01 | 87 | 1011.0 |
| 20260905203603 | 67 | 279 | 0.0 | 0.0 | 0.00 | 0.01 | 0.01 | 87 | 1011.0 |
| 20260905203044 | 67 | 279 | 0.0 | 0.0 | 0.00 | 0.01 | 0.01 | 87 | 1011.1 |
| 20260905202527 | 67 | 281 | 0.0 | 0.0 | 0.00 | 0.01 | 0.01 | 86 | 1011.0 |
| 20260905202050 | 67 | 281 | 0.0 | 0.0 | 0.00 | 0.01 | 0.01 | 84 | 1011.1 |
| 20260905201532 | 67 | 281 | 0.0 | 0.0 | 0.00 | 0.01 | 0.01 | 84 | 1011.1 |
| 20260905201031 | 67 | 281 | 0.0 | 0.0 | 0.00 | 0.01 | 0.01 | 84 | 1011.1 |
| 20260905200536 | 67 | 281 | 0.0 | 0.0 | 0.00 | 0.01 | 0.01 | 82 | 1011.1 |
| 20260905200055 | 67 | 298 | 0.0 | 0.0 | 0.00 | 0.01 | 0.01 | 82 | 1011.1 |
| 20260905195540 | 67 | 229 | 0.0 | 0.0 | 0.00 | 0.01 | 0.01 | 82 | 1011.1 |
| 20260905195103 | 67 | 229 | 0.0 | 0.0 | 0.00 | 0.01 | 0.01 | 81 | 1011.1 |
| 20260905194616 | 66 | 223 | 0.0 | 0.0 | 0.00 | 0.01 | 0.01 | 82 | 1011.1 |
| 20260905194057 | 66 | 227 | 0.0 | 1.0 | 0.01 | 0.01 | 0.01 | 84 | 1011.1 |
| 20260905193541 | 66 | 223 | 0.0 | 0.0 | 0.01 | 0.01 | 0.01 | 85 | 1011.0 |
| 20260905193046 | 65 | 202 | 0.0 | 0.0 | 0.01 | 0.01 | 0.01 | 85 | 1011.1 |
| 20260905192549 | 65 | 198 | 0.0 | 0.0 | 0.01 | 0.01 | 0.01 | 88 | 1011.1 |
| 20260905192052 | 65 | 198 | 0.0 | 0.0 | 0.01 | 0.01 | 0.01 | 89 | 1011.1 |
| 20260905191534 | 65 | 196 | 0.0 | 0.0 | 0.01 | 0.01 | 0.01 | 89 | 1011.2 |
| 20260905191036 | 65 | 196 | 0.0 | 0.0 | 0.01 | 0.01 | 0.01 | 90 | 1011.1 |
| 20260905190541 | 65 | 196 | 0.0 | 0.0 | 0.01 | 0.01 | 0.01 | 90 | 1011.2 |
| 20260905190045 | 65 | 196 | 0.0 | 0.0 | 0.01 | 0.01 | 0.01 | 89 | 1011.2 |
| 20260905185530 | 66 | 196 | 0.0 | 2.0 | 0.01 | 0.01 | 0.01 | 87 | 1011.2 |
| 20260905185036 | 66 | 196 | 1.0 | 2.0 | 0.01 | 0.01 | 0.01 | 84 | 1011.1 |
| 20260905184614 | 67 | 196 | 1.0 | 2.0 | 0.01 | 0.01 | 0.01 | 80 | 1011.1 |
| 20260905184056 | 68 | 178 | 0.0 | 2.0 | 0.00 | 0.00 | 0.00 | 76 | 1011.1 |
| 20260905183536 | 69 | 186 | 1.0 | 2.0 | 0.00 | 0.00 | 0.00 | 76 | 1011.1 |
| 20260905183037 | 69 | 184 | 0.0 | 3.0 | 0.00 | 0.00 | 0.00 | 72 | 1011.0 |
| 20260905182615 | 70 | 184 | 1.0 | 3.0 | 0.00 | 0.00 | 0.00 | 71 | 1011.0 |
| 20260905182025 | 70 | 219 | 0.0 | 3.0 | 0.00 | 0.00 | 0.00 | 71 | 1011.0 |
| 20260905181527 | 71 | 288 | 0.0 | 4.0 | 0.00 | 0.00 | 0.00 | 72 | 1010.9 |
| 20260905181048 | 71 | 289 | 1.0 | 5.0 | 0.00 | 0.00 | 0.00 | 70 | 1010.9 |
| 20260905180548 | 71 | 324 | 2.0 | 4.0 | 0.00 | 0.00 | 0.00 | 69 | 1011.0 |
| 20260905180050 | 70 | 296 | 1.0 | 3.0 | 0.00 | 0.00 | 0.00 | 70 | 1011.0 |
| 20260905175535 | 70 | 318 | 2.0 | 3.0 | 0.00 | 0.00 | 0.00 | 74 | 1011.0 |
| 20260905175037 | 69 | 340 | 1.0 | 3.0 | 0.00 | 0.00 | 0.00 | 72 | 1011.0 |
| 20260905174541 | 69 | 285 | 0.0 | 3.0 | 0.00 | 0.00 | 0.00 | 73 | 1011.0 |
| 20260905174043 | 69 | 323 | 1.0 | 3.0 | 0.00 | 0.00 | 0.00 | 73 | 1011.1 |
| 20260905173528 | 68 | 214 | 0.0 | 2.0 | 0.00 | 0.00 | 0.00 | 74 | 1011.1 |
| 20260905173101 | 68 | 215 | 0.0 | 3.0 | 0.00 | 0.00 | 0.00 | 76 | 1011.1 |
| 20260905172545 | 68 | 329 | 1.0 | 3.0 | 0.00 | 0.00 | 0.00 | 75 | 1011.2 |
| 20260905172047 | 68 | 313 | 1.0 | 4.0 | 0.00 | 0.00 | 0.00 | 74 | 1011.1 |
| 20260905171549 | 68 | 225 | 0.0 | 4.0 | 0.00 | 0.00 | 0.00 | 74 | 1011.2 |
| 20260905171031 | 68 | 227 | 1.0 | 4.0 | 0.00 | 0.00 | 0.00 | 72 | 1011.1 |
| 20260905170611 | 69 | 247 | 0.0 | 2.0 | 0.00 | 0.00 | 0.00 | 74 | 1011.1 |
| 20260905170047 | 68 | 279 | 0.0 | 2.0 | 0.00 | 0.00 | 0.00 | 71 | 1011.1 |
| 20260905165532 | 68 | 259 | 1.0 | 2.0 | 0.00 | 0.00 | 0.00 | 72 | 1011.1 |
| 20260905165042 | 68 | 248 | 0.0 | 2.0 | 0.00 | 0.00 | 0.00 | 74 | 1011.1 |
| 20260905164525 | 69 | 325 | 0.0 | 3.0 | 0.00 | 0.00 | 0.00 | 71 | 1011.1 |
| 20260905164047 | 69 | 335 | 1.0 | 4.0 | 0.00 | 0.00 | 0.00 | 71 | 1011.0 |
| 20260905163606 | 69 | 221 | 1.0 | 4.0 | 0.00 | 0.00 | 0.00 | 69 | 1010.9 |
| 20260905163049 | 69 | 278 | 1.0 | 3.0 | 0.00 | 0.00 | 0.00 | 72 | 1011.0 |
| 20260905162552 | 69 | 226 | 1.0 | 3.0 | 0.00 | 0.00 | 0.00 | 72 | 1011.0 |
| 20260905162034 | 69 | 267 | 0.0 | 5.0 | 0.00 | 0.00 | 0.00 | 72 | 1011.0 |
| 20260905161540 | 69 | 308 | 2.0 | 5.0 | 0.00 | 0.00 | 0.00 | 71 | 1010.9 |
| 20260905161043 | 68 | 355 | 0.0 | 2.0 | 0.00 | 0.00 | 0.00 | 76 | 1010.9 |
| 20260905160530 | 67 | 128 | 0.0 | 2.0 | 0.00 | 0.00 | 0.00 | 77 | 1011.0 |
| 20260905160031 | 67 | 216 | 0.0 | 4.0 | 0.00 | 0.00 | 0.00 | 74 | 1011.0 |
| 20260905155531 | 68 | 216 | 2.0 | 4.0 | 0.00 | 0.00 | 0.00 | 74 | 1011.2 |
| 20260905155033 | 68 | 257 | 1.0 | 4.0 | 0.00 | 0.00 | 0.00 | 74 | 1011.1 |
| 20260905154542 | 68 | 289 | 2.0 | 7.0 | 0.00 | 0.00 | 0.00 | 74 | 1011.1 |
| 20260905154106 | 68 | 137 | 1.0 | 7.0 | 0.00 | 0.00 | 0.00 | 74 | 1011.1 |
| 20260905153531 | 68 | 231 | 1.0 | 4.0 | 0.00 | 0.00 | 0.00 | 76 | 1011.1 |
| 20260905153036 | 69 | 227 | 1.0 | 5.0 | 0.00 | 0.00 | 0.00 | 73 | 1011.1 |
| 20260905152555 | 69 | 72 | 2.0 | 5.0 | 0.00 | 0.00 | 0.00 | 72 | 1011.2 |
| 20260905152052 | 68 | 328 | 1.0 | 6.0 | 0.00 | 0.00 | 0.00 | 75 | 1011.1 |
| 20260905151559 | 68 | 355 | 2.0 | 6.0 | 0.00 | 0.00 | 0.00 | 72 | 1011.1 |
| 20260905151026 | 68 | 300 | 2.0 | 7.0 | 0.00 | 0.00 | 0.00 | 73 | 1011.2 |
| 20260905150545 | 68 | 313 | 1.0 | 7.0 | 0.00 | 0.00 | 0.00 | 74 | 1011.2 |
| 20260905150050 | 68 | 68 | 1.0 | 5.0 | 0.00 | 0.00 | 0.00 | 76 | 1011.1 |
| 20260905145553 | 67 | 238 | 1.0 | 6.0 | 0.00 | 0.00 | 0.00 | 76 | 1011.2 |
| 20260905145059 | 67 | 303 | 2.0 | 7.0 | 0.00 | 0.00 | 0.00 | 77 | 1011.1 |
| 20260905144540 | 66 | 220 | 2.0 | 3.0 | 0.00 | 0.00 | 0.00 | 78 | 1011.1 |
| 20260905144043 | 66 | 227 | 1.0 | 3.0 | 0.00 | 0.00 | 0.00 | 80 | 1011.1 |
| 20260905143526 | 66 | 220 | 1.0 | 3.0 | 0.00 | 0.00 | 0.00 | 80 | 1011.1 |
| 20260905143030 | 65 | 149 | 1.0 | 3.0 | 0.00 | 0.00 | 0.00 | 79 | 1011.1 |
| 20260905142536 | 65 | 265 | 1.0 | 2.0 | 0.00 | 0.00 | 0.00 | 80 | 1011.2 |
| 20260905142039 | 65 | 250 | 1.0 | 4.0 | 0.00 | 0.00 | 0.00 | 81 | 1011.1 |
| 20260905141542 | 65 | 309 | 1.0 | 4.0 | 0.00 | 0.00 | 0.00 | 81 | 1011.1 |
| 20260905141057 | 65 | 210 | 1.0 | 3.0 | 0.00 | 0.00 | 0.00 | 80 | 1011.1 |
| 20260905140600 | 65 | 301 | 0.0 | 2.0 | 0.00 | 0.00 | 0.00 | 81 | 1011.1 |
| 20260905140032 | 65 | 276 | 1.0 | 3.0 | 0.00 | 0.00 | 0.00 | 81 | 1011.1 |
| 20260905135555 | 65 | 275 | 0.0 | 3.0 | 0.00 | 0.00 | 0.00 | 81 | 1011.2 |
| 20260905135025 | 65 | 239 | 0.0 | 3.0 | 0.00 | 0.00 | 0.00 | 81 | 1011.2 |
| 20260905134528 | 65 | 332 | 1.0 | 3.0 | 0.00 | 0.00 | 0.00 | 83 | 1011.3 |
| 20260905134044 | 65 | 304 | 1.0 | 3.0 | 0.00 | 0.00 | 0.00 | 82 | 1011.3 |
| 20260905133543 | 65 | 232 | 1.0 | 4.0 | 0.00 | 0.00 | 0.00 | 82 | 1011.3 |
| 20260905133047 | 64 | 341 | 1.0 | 4.0 | 0.00 | 0.00 | 0.00 | 84 | 1011.3 |
| 20260905132550 | 64 | 355 | 1.0 | 4.0 | 0.00 | 0.00 | 0.00 | 83 | 1011.1 |
| 20260905132036 | 64 | 337 | 1.0 | 4.0 | 0.00 | 0.00 | 0.00 | 85 | 1011.2 |
| 20260905131600 | 63 | 317 | 1.0 | 4.0 | 0.00 | 0.00 | 0.00 | 87 | 1011.3 |
| 20260905131021 | 63 | 241 | 1.0 | 3.0 | 0.00 | 0.00 | 0.00 | 88 | 1011.3 |
| 20260905130555 | 62 | 321 | 1.0 | 3.0 | 0.00 | 0.00 | 0.00 | 91 | 1011.2 |
| 20260905130107 | 61 | 319 | 1.0 | 4.0 | 0.00 | 0.00 | 0.00 | 92 | 1011.1 |
| 20260905125553 | 61 | 218 | 1.0 | 3.0 | 0.00 | 0.00 | 0.00 | 95 | 1011.2 |
| 20260905125036 | 60 | 316 | 1.0 | 3.0 | 0.00 | 0.00 | 0.00 | 96 | 1011.3 |
| 20260905124539 | 60 | 242 | 1.0 | 2.0 | 0.00 | 0.00 | 0.00 | 97 | 1011.2 |
| 20260905124024 | 59 | 360 | 0.0 | 4.0 | 0.00 | 0.00 | 0.00 | 97 | 1011.3 |
| 20260905123532 | 59 | 355 | 1.0 | 4.0 | 0.00 | 0.00 | 0.00 | 97 | 1011.3 |
| 20260905123032 | 59 | 325 | 0.0 | 1.0 | 0.00 | 0.00 | 0.00 | 97 | 1011.4 |
| 20260905122536 | 58 | 325 | 0.0 | 1.0 | 0.00 | 0.00 | 0.00 | 97 | 1011.3 |
| 20260905122024 | 58 | 311 | 0.0 | 2.0 | 0.00 | 0.00 | 0.00 | 97 | 1011.3 |
| 20260905121527 | 57 | 317 | 0.0 | 2.0 | 0.00 | 0.00 | 0.00 | 97 | 1011.2 |
| 20260905121105 | 57 | 317 | 0.0 | 2.0 | 0.00 | 0.00 | 0.00 | 97 | 1011.1 |
| 20260905120552 | 56 | 318 | 0.0 | 2.0 | 0.00 | 0.00 | 0.00 | 97 | 1011.0 |
| 20260905120033 | 56 | 318 | 0.0 | 1.0 | 0.00 | 0.00 | 0.00 | 97 | 1011.0 |
| 20260905115554 | 56 | 317 | 0.0 | 1.0 | 0.00 | 0.00 | 0.00 | 97 | 1010.9 |
| 20260905115055 | 56 | 317 | 0.0 | 2.0 | 0.00 | 0.00 | 0.00 | 97 | 1010.9 |
| 20260905114552 | 55 | 317 | 1.0 | 2.0 | 0.00 | 0.00 | 0.00 | 97 | 1010.9 |
| 20260905114100 | 55 | 305 | 0.0 | 2.0 | 0.00 | 0.00 | 0.00 | 97 | 1010.8 |
| 20260905113544 | 55 | 305 | 0.0 | 3.0 | 0.00 | 0.00 | 0.00 | 97 | 1010.8 |
| 20260905113029 | 55 | 190 | 0.0 | 1.0 | 0.00 | 0.00 | 0.00 | 97 | 1010.8 |
| 20260905112527 | 55 | 186 | 0.0 | 1.0 | 0.00 | 0.00 | 0.00 | 96 | 1010.8 |
| 20260905112033 | 55 | 186 | 0.0 | 1.0 | 0.00 | 0.00 | 0.00 | 96 | 1010.8 |
| 20260905111537 | 54 | 186 | 0.0 | 1.0 | 0.00 | 0.00 | 0.00 | 96 | 1010.8 |
| 20260905111043 | 54 | 186 | 0.0 | 1.0 | 0.00 | 0.00 | 0.00 | 96 | 1010.7 |
| 20260905110533 | 54 | 186 | 0.0 | 1.0 | 0.00 | 0.00 | 0.00 | 96 | 1010.7 |
| 20260905110037 | 54 | 186 | 0.0 | 1.0 | 0.00 | 0.00 | 0.00 | 96 | 1010.6 |
| 20260905105541 | 54 | 186 | 0.0 | 0.0 | 0.00 | 0.00 | 0.00 | 96 | 1010.6 |
| 20260905105039 | 54 | 186 | 0.0 | 0.0 | 0.00 | 0.00 | 0.00 | 96 | 1010.5 |
| 20260905104617 | 54 | 186 | 0.0 | 0.0 | 0.00 | 0.00 | 0.00 | 96 | 1010.4 |
| 20260905104026 | 54 | 186 | 0.0 | 1.0 | 0.00 | 0.00 | 0.00 | 96 | 1010.4 |
| 20260905103531 | 54 | 186 | 0.0 | 1.0 | 0.00 | 0.00 | 0.00 | 96 | 1010.3 |
| 20260905103047 | 54 | 186 | 0.0 | 1.0 | 0.00 | 0.00 | 0.00 | 96 | 1010.3 |
| 20260905102553 | 54 | 186 | 0.0 | 1.0 | 0.00 | 0.00 | 0.00 | 96 | 1010.3 |
| 20260905102057 | 54 | 186 | 0.0 | 1.0 | 0.00 | 0.00 | 0.00 | 96 | 1010.3 |
| 20260905101537 | 54 | 186 | 1.0 | 1.0 | 0.00 | 0.00 | 0.00 | 96 | 1010.3 |
| 20260905101039 | 55 | 186 | 0.0 | 1.0 | 0.00 | 0.00 | 0.00 | 96 | 1010.3 |
| 20260905100543 | 55 | 186 | 1.0 | 1.0 | 0.00 | 0.00 | 0.00 | 96 | 1010.2 |